Location: George Washington National Forest Helicopter Landing Site
(38.6463°N, 79.0851°W)
Time: 14:25:00
(UTC-04:00)

Tiros 1 despin weight - Pass Details

Date: 22 August 2019
Orbit: 594 x 642 km, 48.2° (Epoch: 22 September)

Event Time Altitude Azimuth Distance (km) Brightness Sun altitude
Rises 01:05:37 0° 245° (WSW) 2,824 - -39.4°
Reaches altitude 10° 01:07:54 10° 248° (WSW) 1,929 - -39.4°
Maximum altitude 01:12:18 65° 331° (NNW) 663 - -39.5°
Drops below altitude 10° 01:16:47 10° 53° (NE) 1,961 - -39.5°
Sets 01:19:07 0° 57° (ENE) 2,876 - -39.5°
Exits shadow 01:19:09 - 57° (ENE) 2,887 ? -39.5°
